パンスターズ彗星

C/2015 B2 ( PanSTARRS )

English version
Home page
Updated on October 8, 2017

---------------------------------------------------------------------

・ プロフィール

発見日 2015年1月29日
発見光度 19.8等
発見者 Pan-STARRS 1 telescope (Haleakala)

・ 写真集

・ 軌道要素

Epoch 2016 May 12.0 TT = JDT 2457520.5
T 2016 May 6.57730 TT                                   MPCW
q   3.3695967            (2000.0)            P               Q
z  -0.0001211      Peri.  284.76954     +0.32050914     +0.89850649
 +/-0.0000006      Node   341.90206     +0.51822536     -0.43137367
e   1.0004080      Incl.  105.08811     -0.79291637     +0.08125796
From 212 observations 2015 Jan. 6-2017 June 22, mean residual 0".4.

・ 星図

・ 光度変化

        m1 = 9.2 + 5 logΔ + 10.0 log r(t + 150)

---------------------------------------------------------------------

軌道要素はM.P.E.C. 2017-N58に掲載されたものです。
星図はステラナビゲータ Ver.8 (アストロアーツ) で作成したものです。
光度グラフはComet for Windowsで作成したものです。

---------------------------------------------------------------------

Copyright(C) Seiichi Yoshida (comet@aerith.net). All rights reserved.